GFSWCAN_sfc_temp_246.txt.gz
Temp
55 55 56 55 55 55 55 56 56 58 59 59 59 59 59 58 57 52 46 48 47 34 36 41 42 43 40 37 31 37 36 34 28 30 28 29 30 32 29 31 30 29 21 17 15 13 25 35 32 27 29 31 32 31
54 54 55 55 55 54 55 55 56 56 56 59 59 59 59 58 57 53 46 49 48 40 38 43 43 43 42 43 38 36 38 35 37 32 28 29 29 27 29 30 29 26 30 26 28 29 34 34 33 35 34 32 31 31
53 54 54 55 55 54 54 54 56 55 56 57 58 58 58 58 57 52 44 44 42 36 38 39 38 44 46 45 45 36 35 42 38 38 30 26 29 28 25 29 27 30 33 27 30 30 33 34 35 36 36 34 36 34
53 53 54 54 55 54 54 53 55 55 56 57 57 58 58 57 55 53 47 45 45 38 33 35 45 40 46 45 46 45 43 41 38 32 26 25 28 29 28 33 32 32 33 30 29 29 33 33 35 36 36 37 36 35
52 53 53 53 54 54 54 53 54 54 55 56 57 57 57 56 55 49 46 47 48 48 29 32 39 43 43 44 44 44 43 39 33 30 25 26 28 29 26 28 28 32 33 31 33 35 33 32 36 37 36 36 36 34
52 52 52 53 53 54 54 53 53 53 54 55 56 56 56 55 55 50 38 46 47 44 33 29 36 38 42 42 41 39 38 34 28 28 26 27 31 28 20 26 36 35 37 39 37 36 35 37 38 38 36 36 38 35
51 52 52 52 52 53 53 53 52 53 54 54 56 56 55 56 47 46 44 47 49 44 33 26 28 38 39 40 37 36 33 28 32 25 29 29 29 26 20 25 37 37 37 36 37 38 33 35 34 37 38 38 40 36
51 51 51 52 52 52 53 53 53 53 53 54 55 55 54 52 50 44 44 49 46 37 34 23 19 31 38 32 30 33 27 26 27 25 26 28 25 23 21 32 33 35 35 36 37 34 37 36 37 36 37 36 34 33
51 51 51 52 52 51 53 53 53 53 53 54 53 54 53 46 40 41 50 48 43 40 27 23 27 25 35 27 28 29 29 25 27 24 26 28 20 22 35 32 36 35 36 35 34 35 36 37 35 35 34 33 32 32
50 51 50 51 50 50 53 53 53 53 52 52 51 47 36 40 51 51 44 38 36 31 29 25 28 25 32 26 22 26 23 22 21 26 26 20 26 32 35 37 40 39 38 37 33 31 33 33 34 32 33 33 33 33
50 50 49 49 49 49 53 53 54 52 51 44 40 37 38 50 45 39 33 33 27 27 26 27 29 27 33 28 26 25 22 16 21 25 24 21 24 29 34 36 40 38 40 40 39 40 40 39 36 33 33 34 34 33
49 49 49 48 48 48 53 52 52 49 45 45 42 42 40 37 34 36 34 32 32 34 27 30 30 32 29 29 28 23 23 20 22 24 19 23 31 34 35 38 39 39 39 37 39 38 37 38 37 35 33 33 34 34
50 49 48 47 47 48 52 52 51 51 46 43 40 34 33 34 34 34 31 31 30 28 29 30 29 30 29 28 25 24 20 23 27 18 24 29 34 33 35 39 38 39 39 38 38 39 39 38 37 36 34 34 34 33
50 48 47 46 45 50 52 51 50 48 46 38 35 32 32 33 34 33 39 34 33 33 34 37 28 31 29 27 24 24 18 22 17 18 27 34 32 35 37 40 38 37 38 38 38 38 38 37 36 35 35 34 33 32
49 48 47 46 47 51 51 50 50 48 42 38 37 32 34 34 28 33 33 33 32 41 35 31 30 31 26 25 20 19 15 17 24 29 32 32 36 37 37 39 40 38 39 38 38 38 37 36 35 33 33 33 33 33
49 47 44 46 50 50 50 49 47 46 36 37 37 36 34 32 26 30 32 29 41 43 35 33 25 23 18 22 17 26 27 28 31 29 33 35 37 39 39 41 40 39 39 38 38 38 37 35 34 34 33 33 33 33
48 40 45 46 46 48 49 44 42 42 42 38 35 37 39 35 35 29 33 37 46 41 40 31 31 32 22 16 21 27 31 37 35 32 34 40 39 39 40 41 39 39 38 38 37 37 36 35 34 33 31 32 32 33
39 42 46 46 45 44 43 40 37 33 31 33 35 34 38 40 33 33 35 44 44 41 36 36 27 20 25 27 28 32 33 32 34 35 38 39 41 42 42 39 39 39 38 38 38 37 35 34 33 33 32 32 32 31
42 43 47 47 44 37 34 35 34 31 33 34 34 30 36 37 43 41 42 45 34 36 35 31 31 29 30 32 36 35 35 31 31 29 32 39 41 41 40 39 39 39 38 37 36 37 36 36 36 33 33 32 31 29
47 47 47 48 45 33 31 32 33 32 32 33 33 34 35 37 37 40 43 33 36 36 36 30 33 35 39 39 39 47 41 37 36 33 32 35 39 39 39 39 39 38 38 37 37 39 34 30 31 33 33 32 31 29
43 42 45 44 33 33 32 32 31 32 34 34 33 37 33 34 35 35 39 33 33 35 37 33 33 34 37 38 44 44 41 44 43 42 38 34 38 39 38 39 39 39 37 36 35 35 37 35 33 33 35 32 31 31
38 45 36 37 32 32 30 32 32 32 32 33 32 33 32 32 33 34 34 33 31 51 35 37 36 36 37 40 42 46 45 43 39 44 44 41 36 37 37 38 37 36 37 36 36 36 36 34 34 34 33 32 34 31
41 40 33 32 30 30 28 32 29 31 30 31 34 31 30 32 33 36 34 35 33 34 36 35 35 39 42 42 43 43 43 44 41 41 40 41 40 41 40 38 39 37 35 36 38 37 35 37 37 33 33 32 31 30
40 32 30 29 29 26 28 26 28 29 29 30 32 26 28 30 32 30 31 31 32 31 31 36 40 39 39 41 40 41 43 44 42 41 42 39 38 38 39 39 39 39 39 38 38 36 35 35 37 34 33 32 31 31
28 28 29 25 27 24 22 22 24 26 26 27 25 24 26 30 28 28 31 34 27 32 33 39 43 45 42 41 41 42 44 44 41 39 40 42 40 38 37 38 37 38 39 36 35 34 34 36 35 33 32 32 31 30
24 28 25 24 21 21 22 20 22 25 26 24 27 27 27 28 29 30 36 34 32 37 36 39 41 39 43 44 40 40 41 46 44 39 40 42 41 38 35 33 32 33 38 40 37 35 34 35 33 33 33 34 36 31
23 24 25 25 24 25 25 27 29 27 25 23 24 24 26 28 30 33 32 44 40 43 43 46 49 49 46 44 44 47 47 46 44 45 44 44 43 43 41 37 35 37 39 39 38 37 35 34 33 34 33 32 33 33
27 20 21 25 25 28 25 26 26 26 29 28 26 24 30 34 36 32 32 36 48 46 44 45 46 49 50 48 48 45 44 43 42 42 41 38 38 41 41 38 42 41 40 40 39 38 37 36 35 34 33 32 31 32
18 17 22 22 19 26 26 28 30 33 32 28 31 28 30 29 31 29 29 43 46 46 43 42 39 44 46 46 45 45 42 41 37 33 33 33 34 35 40 40 39 40 40 39 41 40 38 37 36 35 35 34 33 32
15 25 26 23 20 23 29 31 29 29 29 29 27 28 26 25 26 27 32 42 43 45 48 48 43 45 40 40 39 39 44 46 47 44 38 36 38 41 39 38 38 39 39 39 37 37 41 39 38 35 32 31 31 31
23 25 20 27 25 33 32 28 28 28 28 28 27 26 26 25 27 27 32 42 45 48 48 45 43 46 43 42 40 37 38 44 47 48 44 46 43 41 40 40 40 40 41 39 37 37 35 34 33 32 32 32 31 32
25 25 26 16 20 25 26 26 25 25 26 27 26 24 25 25 24 27 29 35 41 44 47 45 44 43 47 48 48 45 46 45 45 42 43 42 41 41 40 41 41 41 40 38 37 36 35 34 33 33 32 32 31 31
25 27 31 24 24 23 24 24 22 22 23 23 23 25 25 27 26 30 28 31 38 45 47 47 49 48 47 46 45 44 45 45 44 44 43 42 42 42 42 41 41 40 39 38 38 36 35 34 34 33 33 33 32 31

GFSWCAN_sfc_temp_252.txt.gz
Temp
54 54 54 55 55 55 55 56 54 54 54 54 55 56 58 58 57 50 44 45 46 35 35 39 40 39 37 36 33 36 36 33 27 28 30 30 31 31 29 30 30 29 21 16 14 15 29 31 30 29 31 28 30 28
54 53 53 54 54 55 55 55 54 54 53 53 54 55 57 58 57 52 45 46 46 40 38 40 41 41 40 41 38 33 37 34 37 32 28 28 30 26 29 31 27 28 31 28 30 33 32 33 31 33 32 29 29 29
53 53 53 54 54 54 55 55 54 53 53 52 53 54 55 58 57 52 43 42 42 37 37 39 38 41 44 42 42 36 34 40 37 37 30 27 30 28 26 29 26 27 29 28 31 29 31 32 31 33 33 31 32 32
52 52 53 53 53 53 54 54 55 53 52 52 52 53 54 56 55 52 47 43 45 40 35 36 44 39 43 42 43 42 40 38 35 30 26 25 29 29 28 32 32 31 31 29 30 28 29 32 32 33 33 33 33 33
52 52 52 52 53 53 53 53 54 53 52 52 52 52 53 54 55 48 44 44 45 48 32 32 38 40 41 43 42 42 41 37 33 29 26 28 27 28 24 27 27 30 32 33 38 36 35 33 35 34 33 32 32 32
51 51 51 52 52 53 53 53 53 53 52 51 52 51 52 53 54 50 39 45 45 44 34 29 36 36 40 41 40 38 38 31 27 28 25 27 29 28 24 29 38 33 34 38 39 36 33 33 36 35 34 33 33 33
51 52 51 52 52 52 53 52 52 53 52 51 51 51 51 52 50 46 44 47 48 44 35 26 28 36 36 37 36 35 32 27 31 23 29 29 27 25 21 31 42 35 35 32 34 35 31 31 31 35 35 34 38 33
51 51 51 51 52 52 52 52 52 53 52 51 51 50 50 51 49 46 43 49 45 38 34 24 21 30 35 31 30 32 29 28 26 23 25 28 24 23 24 36 33 33 32 32 35 32 35 34 35 33 33 33 31 29
51 51 51 51 51 51 52 52 52 51 51 51 50 50 48 45 41 43 50 48 43 42 31 25 29 27 34 26 27 29 29 29 26 24 26 28 21 24 40 38 35 33 36 34 32 32 34 34 34 33 33 30 29 28
50 50 51 51 51 51 51 52 51 51 51 50 47 44 37 42 48 49 45 41 38 34 28 26 29 26 32 27 22 27 24 23 24 27 25 21 27 35 39 41 42 37 36 36 31 28 30 32 32 32 32 33 32 30
50 50 50 51 51 50 50 51 51 50 49 44 39 36 42 49 43 39 33 34 33 33 26 27 30 27 32 30 27 26 23 13 22 26 25 24 23 32 50 40 40 40 38 41 41 41 40 39 35 33 32 32 31 30
49 50 50 50 50 51 50 50 50 45 43 43 42 42 42 36 33 33 32 32 32 34 26 29 30 32 28 28 28 24 24 19 25 23 18 25 32 40 39 42 39 39 39 39 38 38 37 38 38 36 34 32 31 31
50 50 50 50 50 50 51 50 49 49 46 43 39 33 31 32 29 31 28 31 28 27 27 28 29 27 26 27 23 23 20 24 26 18 25 30 38 36 33 38 37 39 40 37 37 38 38 37 37 36 33 33 31 30
49 49 49 50 49 50 48 47 48 46 41 35 31 27 28 28 30 33 32 28 30 29 32 38 27 31 28 28 23 26 18 21 15 16 27 35 40 35 33 37 37 36 37 37 36 37 36 36 35 35 35 33 32 30
49 49 49 48 49 49 48 47 46 42 39 32 31 28 29 34 35 33 29 29 31 40 40 31 31 31 26 24 23 18 16 15 21 31 34 40 39 35 34 36 37 37 38 36 36 36 36 36 34 33 33 33 32 30
49 48 43 48 48 47 46 44 41 42 35 33 31 30 33 33 32 32 28 25 38 42 39 34 29 29 27 26 15 23 24 25 33 31 40 38 35 36 36 38 38 38 39 37 37 37 36 36 35 33 32 32 31 31
48 36 47 48 48 47 46 39 40 34 32 31 30 33 34 34 35 32 31 34 45 40 36 28 31 34 23 17 19 27 29 40 41 38 37 37 36 37 37 38 39 38 38 37 37 37 36 37 34 32 30 29 30 30
36 38 47 48 46 42 39 38 34 32 29 32 32 35 35 39 37 35 33 41 42 38 34 34 28 22 27 26 24 31 33 35 34 36 36 35 37 39 40 38 39 39 38 38 38 37 36 33 33 33 33 30 29 28
39 38 45 47 44 37 32 32 33 30 30 32 30 32 30 33 40 43 38 41 37 36 35 29 29 31 37 31 36 40 34 36 36 33 33 35 39 40 40 39 39 38 38 37 37 36 36 37 37 35 33 32 31 29
48 48 48 47 45 33 30 31 32 31 29 29 32 31 31 33 35 38 38 39 35 35 35 33 40 36 39 40 39 45 48 40 37 31 29 32 38 39 38 39 39 39 38 37 37 38 36 34 34 34 34 34 30 29
43 39 45 42 33 33 31 30 30 32 30 27 26 30 29 29 33 34 34 36 35 33 37 43 31 35 40 40 41 45 43 43 42 41 35 32 37 39 38 40 39 39 37 37 35 35 37 35 33 35 35 34 33 32
31 43 30 35 32 32 30 32 30 32 31 32 30 28 29 31 32 33 35 32 32 38 43 40 39 39 39 40 42 45 46 45 40 42 42 41 36 36 37 38 38 37 37 38 37 36 37 37 35 35 35 33 33 30
41 36 31 32 29 29 26 30 28 30 20 28 31 26 26 30 34 36 32 33 35 37 43 44 38 38 39 40 41 42 44 45 42 41 40 41 41 41 41 39 40 38 36 38 40 39 37 37 37 35 34 32 31 31
40 30 26 25 27 25 26 27 29 28 28 27 28 30 31 31 33 32 33 36 38 36 36 36 38 39 39 37 38 39 42 44 40 39 41 40 39 39 40 40 40 41 41 40 39 38 36 36 38 35 33 32 32 32
22 22 24 17 22 24 16 14 22 25 24 12 17 26 28 30 29 30 31 38 42 37 39 40 39 46 49 49 38 39 42 43 41 40 41 43 41 39 38 39 39 40 41 38 37 35 35 36 35 34 33 33 32 32
17 18 20 16 13 21 19 18 15 20 19 16 19 21 28 26 26 27 32 41 36 39 42 40 42 41 44 50 48 37 41 44 43 40 40 44 42 40 37 35 34 34 40 41 38 36 35 36 35 34 33 35 36 33
13 13 17 13 20 22 20 24 24 19 16 17 16 21 20 23 25 31 36 37 39 40 48 49 48 47 48 49 42 43 46 46 45 44 44 46 46 47 43 39 37 39 41 41 39 38 36 36 35 35 35 35 35 34
22 17 17 23 18 23 24 25 20 20 20 22 21 18 19 25 30 37 35 37 40 40 43 48 50 51 52 54 50 46 45 44 42 41 39 36 36 40 40 41 44 41 42 41 40 40 39 38 36 36 35 35 34 35
15 21 19 16 22 20 21 22 24 28 26 25 25 27 25 30 38 36 35 37 38 40 40 39 40 44 44 45 47 47 44 44 40 33 33 33 33 33 40 41 40 42 42 40 42 41 40 39 39 38 37 37 35 34
16 22 18 20 20 20 26 26 25 33 36 35 34 33 33 33 35 32 34 35 37 40 42 43 42 42 42 41 40 42 45 47 48 43 39 36 39 42 41 39 40 41 41 40 39 39 43 41 41 38 36 34 33 32
26 24 16 21 22 27 31 33 27 28 25 29 29 31 34 38 31 30 32 36 38 40 41 40 41 43 44 43 42 40 39 44 47 48 48 48 47 42 42 41 42 42 41 40 39 38 38 37 36 34 34 32 32 33
14 21 23 17 24 30 20 22 25 28 30 28 26 25 24 23 25 31 31 35 35 36 40 43 42 44 45 48 48 49 46 47 46 47 46 48 43 44 42 42 42 41 40 39 38 38 37 36 35 34 33 32 32 32
15 24 27 26 23 14 26 24 19 21 17 27 29 31 31 30 28 36 32 38 43 43 44 45 46 48 47 47 49 51 48 50 48 47 48 46 45 43 43 42 41 40 39 38 38 38 37 36 35 34 34 33 34 34

GFSWCAN_sfc_temp_255.txt.gz
Temp
54 54 54 54 54 55 55 55 56 54 53 52 52 53 55 57 57 51 44 44 46 35 36 39 41 39 37 37 33 36 36 34 29 30 32 33 34 33 33 34 32 31 24 22 20 22 34 33 33 35 38 33 34 33
54 54 54 53 54 54 55 55 55 54 52 51 51 52 53 55 57 52 45 45 45 40 38 39 40 41 40 43 38 34 38 35 38 33 30 31 32 29 33 36 31 32 35 32 34 38 35 36 37 37 35 34 33 33
53 54 53 53 53 53 54 54 55 54 52 51 51 51 52 53 55 53 44 42 41 36 36 38 37 41 43 41 42 36 34 40 37 37 31 29 33 32 31 33 32 32 32 32 35 34 35 35 35 35 35 35 33 34
52 53 53 53 53 53 53 53 54 54 52 51 51 51 51 52 53 52 47 44 44 40 34 36 43 38 42 41 43 42 40 37 35 31 28 29 34 32 32 35 36 34 33 33 33 34 34 35 35 36 35 35 34 34
52 52 52 52 52 53 53 53 53 53 53 51 50 50 51 51 52 49 45 44 46 47 33 32 37 39 40 42 42 41 41 38 33 31 28 31 30 31 26 30 31 32 36 38 42 41 41 39 37 36 34 34 34 33
52 52 52 51 52 52 52 53 53 53 53 52 51 49 49 50 51 50 39 45 45 43 35 29 35 36 38 40 39 38 36 33 29 32 29 28 30 31 26 32 43 36 37 41 44 37 34 36 38 38 36 35 35 34
52 52 51 52 51 52 53 52 52 52 53 52 51 50 48 48 47 43 42 43 48 45 35 26 28 35 36 37 34 34 32 29 34 26 30 30 29 28 25 32 47 38 37 35 35 36 33 34 33 36 36 36 39 34
51 51 51 51 51 51 51 52 52 52 51 52 52 48 48 50 49 44 44 49 46 39 35 25 21 30 35 32 32 31 28 27 27 25 27 30 26 25 25 38 39 36 35 34 36 35 38 36 37 35 36 35 32 32
51 51 51 51 51 51 51 51 51 52 51 51 50 49 46 45 41 43 50 49 44 42 33 27 30 28 34 26 28 30 28 26 26 24 26 29 26 26 39 44 38 34 38 37 34 33 34 34 35 34 34 33 32 30
51 51 50 50 51 51 50 51 51 51 50 50 46 42 35 42 47 47 44 39 38 34 29 27 30 27 32 27 23 27 24 24 24 28 26 22 28 36 40 46 44 39 39 37 32 29 31 33 34 34 34 36 35 32
50 50 50 50 50 50 50 50 50 50 49 41 38 36 41 48 43 38 32 32 33 32 27 28 30 28 33 31 28 27 23 14 22 26 26 26 25 33 48 48 42 42 40 42 41 45 41 40 36 35 34 34 33 32
50 50 50 50 50 50 50 50 49 42 40 41 40 43 42 36 32 31 31 31 31 31 27 30 30 33 28 30 29 24 24 20 25 24 20 26 32 43 45 51 43 42 41 42 40 40 40 39 39 38 36 34 34 33
50 50 50 50 50 49 50 50 48 47 45 40 39 33 32 32 27 28 27 30 31 28 27 28 28 27 27 28 25 25 21 24 26 19 26 31 39 41 40 40 40 42 41 41 37 40 40 38 39 38 35 35 33 32
49 49 49 49 49 49 49 47 47 44 40 33 31 27 28 27 29 32 31 28 32 30 29 35 26 31 29 28 25 28 19 21 15 16 27 35 42 45 37 39 37 37 39 38 38 38 37 37 37 37 36 35 33 31
49 49 49 48 49 49 49 47 46 42 36 31 31 26 27 32 34 33 28 27 30 36 37 30 28 30 26 24 25 20 16 17 21 30 35 41 49 39 36 37 38 38 38 39 38 37 36 37 36 35 34 35 35 32
49 48 42 48 48 48 47 44 40 39 34 32 31 29 33 30 29 32 29 28 32 38 38 36 32 30 28 25 15 24 24 23 31 31 39 43 41 36 35 37 38 38 40 39 38 37 37 36 36 34 33 33 33 32
49 35 47 48 48 48 48 38 36 32 31 29 29 32 33 34 33 31 33 33 38 37 35 33 32 36 23 18 18 27 27 35 38 39 39 41 40 36 36 37 38 38 39 38 37 37 37 37 35 32 31 31 32 33
35 38 47 48 45 42 37 36 32 32 29 29 29 30 29 37 37 35 33 40 40 34 33 35 31 20 25 27 28 29 31 34 34 36 38 36 36 36 38 37 38 39 38 38 38 37 36 34 34 35 33 32 31 29
38 37 46 47 43 36 31 32 31 29 29 29 29 33 30 31 40 42 39 41 38 36 34 32 33 28 33 32 37 35 36 38 42 38 35 36 37 37 37 38 38 38 38 37 37 37 36 37 39 36 34 33 32 31
47 46 46 47 41 30 29 30 32 28 29 31 31 31 30 29 37 39 37 35 37 35 33 33 34 34 37 38 38 41 41 39 35 34 32 33 37 37 37 38 39 39 38 37 38 38 36 36 36 36 34 35 32 31
43 39 45 39 30 29 29 29 28 30 31 28 22 27 27 27 27 32 34 34 33 32 32 34 31 41 45 40 40 41 41 41 42 44 38 32 36 38 37 39 39 39 37 37 36 36 38 36 35 36 36 35 35 34
30 44 30 35 26 31 29 26 29 30 30 31 31 24 26 27 28 28 34 32 32 35 35 37 39 39 43 43 42 42 43 42 40 40 41 40 35 36 36 38 38 37 37 38 38 38 38 37 37 37 36 35 35 33
40 34 28 31 27 26 23 30 28 29 22 23 31 27 27 20 27 31 31 33 34 38 43 42 41 39 40 42 42 43 43 42 40 39 38 38 38 39 40 39 40 38 37 38 40 39 38 38 38 36 36 33 32 32
40 26 26 23 24 18 20 25 29 28 27 27 27 19 26 25 30 28 26 32 38 36 36 40 41 41 43 40 42 49 47 42 39 38 40 38 36 37 40 40 41 41 42 40 39 39 37 36 38 36 34 32 33 33
23 21 23 16 8 22 18 20 24 24 23 25 23 21 18 29 28 26 25 31 36 38 37 39 40 41 41 44 46 49 43 42 40 38 38 41 37 36 35 39 39 41 42 39 37 36 36 37 37 35 34 34 33 33
18 15 18 14 8 13 15 15 18 18 18 12 21 19 26 21 18 20 28 35 36 40 41 38 39 40 42 46 45 48 49 43 42 39 39 42 41 39 36 35 35 36 41 42 39 36 36 36 36 34 34 36 37 34
11 9 14 11 14 15 17 20 22 20 19 20 19 23 22 21 20 26 31 36 37 38 42 45 45 45 45 46 48 51 49 46 46 46 43 45 45 45 42 38 37 40 42 42 41 39 37 37 36 35 35 35 36 36
16 12 13 17 21 23 19 16 17 19 18 24 24 20 20 20 24 32 32 37 40 40 41 43 45 45 45 47 48 46 43 43 41 41 41 40 42 44 44 44 44 42 42 43 41 41 39 39 37 37 36 36 36 37
17 16 22 18 17 16 19 20 21 26 26 25 24 25 25 30 34 38 39 34 38 39 39 41 41 43 43 43 44 44 42 40 39 34 35 34 33 37 42 44 42 42 43 41 42 42 40 40 39 39 38 38 37 37
16 22 18 18 18 18 22 23 23 28 31 32 31 31 32 29 35 35 31 32 34 37 41 43 42 41 40 40 39 40 42 44 46 45 43 38 39 43 42 42 40 42 42 41 39 40 43 41 41 39 38 36 35 34
19 20 14 21 21 25 28 32 32 32 30 30 32 30 30 33 37 39 38 39 38 40 39 36 37 41 42 41 39 36 37 43 45 47 47 45 46 43 43 43 43 43 42 41 40 39 39 38 37 36 36 34 34 35
16 20 22 17 21 28 20 20 26 26 28 27 27 30 29 25 25 33 28 33 33 32 37 39 39 39 43 45 46 47 44 46 45 45 45 46 44 44 44 43 43 42 41 40 39 39 38 38 37 36 35 34 34 34
16 23 24 22 20 16 23 22 14 16 23 25 26 28 28 28 25 33 29 36 40 39 39 41 44 46 46 45 46 47 46 49 48 46 45 45 44 44 43 43 43 42 40 39 39 39 38 38 37 36 35 35 35 34

GFSWCAN_sfc_temp_261.txt.gz
Temp
55 55 55 55 55 54 54 55 55 55 55 53 53 53 53 53 53 51 57 58 57 54 55 55 57 57 57 61 51 56 52 51 47 43 52 57 56 57 56 58 48 44 38 39 46 39 44 53 47 48 54 56 54 55
55 55 55 55 55 54 54 54 54 54 54 52 53 53 53 51 51 52 51 56 57 53 50 53 54 54 54 53 59 56 58 57 57 53 56 60 51 52 57 55 53 48 54 49 51 57 56 54 55 56 57 55 54 54
55 54 55 55 54 54 54 54 54 54 54 53 52 52 52 51 50 50 49 56 54 50 49 51 52 53 55 55 57 53 56 63 61 61 58 53 49 59 51 56 56 54 54 49 51 60 55 54 55 55 56 56 56 56
54 54 55 54 54 53 53 53 54 54 53 53 53 52 52 51 51 51 47 55 52 53 46 49 54 52 54 55 55 55 56 56 59 54 44 48 51 56 60 59 58 57 53 55 55 60 53 56 57 54 54 55 54 54
54 55 55 54 54 53 53 53 53 53 53 53 53 53 52 51 50 49 48 52 54 49 43 45 49 51 52 54 54 55 56 56 55 49 47 49 55 52 53 53 54 54 59 56 61 69 66 63 57 56 51 51 52 51
54 54 54 53 53 53 53 52 53 52 52 53 52 53 53 51 50 46 42 46 49 53 45 40 48 48 50 53 53 53 54 53 54 55 54 56 48 51 47 52 68 61 64 69 66 66 57 57 59 56 52 52 52 51
53 53 53 53 53 52 52 52 52 52 52 52 52 52 52 51 47 43 43 46 50 50 42 36 41 46 50 51 50 49 49 49 53 54 51 56 50 49 46 50 65 66 63 65 61 55 52 55 53 55 54 54 52 53
53 53 53 53 52 52 52 52 52 52 52 52 52 52 51 50 48 43 46 47 49 43 41 35 36 41 49 46 45 49 44 46 47 51 48 50 46 47 37 52 58 65 66 63 56 58 57 58 56 53 54 52 49 48
53 53 52 52 52 52 52 52 51 51 51 51 51 50 50 44 42 46 47 47 44 40 33 36 38 38 46 44 45 44 47 40 44 44 47 49 47 38 50 53 58 59 61 60 57 54 56 53 52 52 51 49 48 48
52 52 52 52 52 52 51 51 50 50 51 50 48 45 39 43 48 47 43 39 37 35 37 36 48 38 46 42 39 40 40 42 36 46 45 40 47 54 57 58 60 65 63 61 52 48 52 52 51 51 50 51 50 49
52 52 52 52 51 51 51 51 50 49 49 48 42 40 44 48 43 40 32 32 32 32 35 43 48 38 43 41 40 42 37 36 33 44 40 42 44 51 61 60 62 64 68 62 63 62 56 57 52 52 51 51 52 50
52 52 51 51 51 51 50 50 50 48 47 44 43 45 42 36 33 32 32 32 32 36 37 39 43 46 39 42 40 35 37 36 34 41 37 39 50 55 56 58 63 66 66 61 61 63 57 59 56 54 52 51 52 51
52 51 51 51 50 50 50 50 48 48 47 48 40 34 32 33 29 30 29 32 33 40 39 41 38 38 36 38 36 36 32 36 44 36 37 45 54 53 54 55 56 64 65 60 58 62 58 58 57 54 52 53 52 49
51 51 50 50 50 50 50 49 48 47 45 35 31 28 30 30 31 35 37 42 47 47 43 46 38 37 37 35 35 34 37 37 33 34 40 54 52 57 58 54 54 60 59 57 57 59 57 55 54 54 53 52 50 47
50 50 50 50 50 50 49 48 47 47 41 31 30 26 30 38 39 41 41 41 43 48 45 41 38 39 34 32 33 30 27 32 37 44 53 55 58 60 62 52 56 58 58 56 57 56 55 54 53 51 52 51 50 46
50 49 48 49 49 49 49 47 46 45 37 31 29 27 34 34 37 41 41 38 41 44 46 43 35 33 32 33 29 32 38 37 44 49 58 53 53 52 53 52 55 57 58 57 57 55 54 52 51 50 51 49 48 46
49 42 49 49 49 49 47 44 41 31 31 28 27 34 35 36 35 37 39 38 38 35 33 35 32 34 33 33 33 42 43 56 59 57 58 53 49 48 49 51 54 54 56 57 56 54 53 52 52 48 45 47 47 46
42 47 49 49 48 46 43 39 32 30 26 29 28 34 38 41 40 42 44 45 37 33 33 32 32 32 34 34 41 49 48 52 56 58 55 50 49 46 47 50 52 53 55 56 54 53 51 49 47 46 46 46 45 45
45 47 49 49 46 38 32 31 31 27 30 34 35 38 39 40 43 46 46 46 40 36 34 33 32 33 41 46 45 46 49 50 49 51 51 48 46 45 46 49 51 52 54 53 53 51 49 49 48 48 47 45 43 43
48 49 48 48 45 33 29 30 32 30 30 34 37 36 38 39 42 43 43 43 39 35 32 32 34 37 39 44 47 48 49 49 50 48 49 49 47 46 46 47 49 52 52 52 51 49 49 48 49 48 46 46 44 42
46 46 47 44 34 33 32 31 30 32 33 32 38 37 34 38 37 37 38 42 35 33 34 38 39 44 47 45 47 49 50 51 49 48 47 44 47 46 46 46 49 50 48 48 47 47 47 47 48 48 46 47 47 46
41 43 35 37 32 31 30 32 31 33 31 32 32 34 33 31 35 37 41 37 36 39 41 43 44 46 47 48 47 49 53 53 52 50 45 45 45 43 44 45 44 45 46 46 47 46 47 50 49 48 47 47 46 46
43 39 33 32 28 28 27 32 28 31 26 30 33 30 32 32 38 42 35 38 40 46 48 47 47 48 49 51 52 51 51 51 49 51 50 50 47 46 45 45 44 43 43 45 48 47 47 48 46 46 48 46 44 42
41 32 28 27 28 23 28 26 30 29 30 27 28 27 31 35 37 33 32 39 44 48 46 46 47 46 47 47 45 47 49 52 52 52 51 48 45 43 44 44 44 45 45 47 47 46 48 45 45 46 45 43 42 40
27 25 27 22 27 23 21 24 26 27 24 27 27 27 30 33 28 31 31 39 44 45 46 48 48 47 46 48 49 50 53 52 50 48 51 49 48 44 42 43 43 45 46 45 44 44 44 44 45 44 42 41 41 39
20 24 22 23 22 22 23 19 21 24 28 26 28 33 32 29 26 26 35 41 44 45 43 44 45 45 46 49 47 47 49 53 51 47 50 50 49 46 42 38 37 39 45 46 45 43 42 43 43 42 41 42 42 40
19 19 23 29 28 27 26 31 32 29 24 23 28 28 28 22 23 33 42 43 42 43 45 46 46 46 46 45 45 47 46 48 48 50 52 51 51 51 49 43 40 43 45 45 46 45 41 41 42 42 41 42 42 42
25 25 17 21 23 29 24 26 24 23 26 32 31 24 22 26 29 40 41 43 45 45 44 46 47 48 47 46 48 47 46 45 46 46 47 48 50 50 50 50 51 44 45 45 45 45 44 43 42 42 41 40 41 43
23 27 29 19 24 26 26 26 27 32 36 34 29 28 31 38 41 41 43 44 45 43 42 42 44 47 47 48 49 50 49 47 43 39 39 40 43 44 47 49 48 47 46 44 44 45 44 44 44 43 42 42 43 43
24 30 25 21 18 21 29 32 33 37 38 38 38 37 36 38 41 44 43 43 40 40 42 43 43 43 42 43 43 45 50 51 49 46 43 43 45 50 48 46 46 45 45 44 44 43 44 44 44 43 42 41 41 40
29 28 27 27 25 30 33 38 38 38 36 35 36 33 32 36 40 43 43 43 43 42 41 40 41 43 42 42 42 41 42 49 51 50 50 51 51 51 47 47 47 47 45 44 43 42 41 41 41 40 39 39 39 40
29 27 26 22 26 33 36 33 32 31 32 31 30 33 33 32 29 36 41 42 40 39 40 41 40 40 44 45 46 47 45 49 50 51 49 49 48 49 49 48 47 46 44 43 42 42 40 40 40 39 39 39 39 39
30 31 30 28 27 27 31 30 28 27 28 27 28 31 31 30 27 36 42 44 41 41 40 42 44 45 46 46 46 47 46 49 50 47 47 46 46 47 48 47 46 45 43 42 42 41 40 40 39 39 39 39 39 39